Weather in Aryskan

Russia / Tyva Republic     51°24′16″N   92°42′25″E
temp.,
°C
wind,
m/s
gust,
m/s
humid.,
%
clouds,
%
prec.,
mm/h
press.,
hPa
HPBL,
m
5 march, fri
fri501:00−16sse01908 0.0 103120
04:00−17ssw119120 0.0 103020
07:00−18sw119443 0.0 103020
10:00−14s118971 0.0 102969
13:00−12wsw118385 0.0 1026289
16:00−11sw228397 0.0 1024224
19:00−12sw118798 0.0 102821
22:00−14ese118695 0.0 103120
6 march, sat
sat601:00−17ese119148 0.0 103420
04:00−18s019428 0.0 103420
07:00−18wsw119359 0.0 103520
10:00−13ssw228972 0.0 103388
13:00−11ssw108186 0.0 1029352
16:00−10ssw1182100 0.0 1026292
19:00−14w228890 0.0 102720
22:00−16wsw228939 0.0 102720
7 march, sun
sun701:00−17ssw119136 0.0 102720
04:00−18sse019343 0.1 102620
07:00−18s119465 0.1 102720
10:00−14sse008988 0.0 1026145
13:00−12e118494 0.0 1025261
16:00−10sw008099 0.0 1024224
19:00−13sw1183100 0.0 102721
22:00−15sw118281 0.0 102920
8 march, mon
mon801:00−16wsw118251 0.0 103020
04:00−16s118374 0.0 103020
07:00−17ssw118765 0.0 103120
10:00−12sw228536 0.0 102984
13:00−10sw117919 0.0 1026321
16:00−9sw21828 0.0 1024242
19:00−13w12884 0.0 102521
22:00−14wsw118649 0.0 102520
9 march, tue
tue901:00−14sw128875 0.0 102520
04:00−14ese1190100 0.0 102720
07:00−14ese1190100 0.0 102920
10:00−11wsw118894 0.0 1029103
13:00−8se018179 0.0 1028201
16:00−7w11840 0.0 1027184
19:00−11w01860 0.0 102921
22:00−12wsw118431 0.0 102921